User: anonymous   Login
Location: Unspecified
(0.0000°N, 0.0000°E)
Time: 06:52:40
(UTC+02:00)
Language:

Cosmos 1242 Rocket - Orbit

View from above orbital plane
View from above orbital plane
View from above satellite
View from above satellite

Ground track
Ground track

The orbit data is extracted from the following two-line orbital elements,

1 12155U 81008B   17235.58361137 +.00001581 +00000-0 +51282-4 0  9990
2 12155 081.1651 345.9680 0030873 114.4489 245.9973 15.30845637970934
Epoch (UTC): 23 August 2017 14:00:24
Eccentricity: 0.0030873
inclination: 81.1651°
perigee height: 452 km
apogee height: 494 km
right ascension of ascending node: 345.9680°
argument of perigee: 114.4489°
revolutions per day: 15.30845637
mean anomaly at epoch: 245.9973°
orbit number at epoch: 97093

The dashed part of the orbit path shows where the satellite is in the earth's shadow,  

DLR